FENGYUN 1C DEB, 31173

Orbit data source: Space-Track

FENGYUN 1C DEB, 31173 is space debris in SSO originally from a launch on Mon, 10 May 1999 UTC launched from the Taiyaun Space Center, China (TSC). Fengyun 1C debris stems from the Chinese weather satellite Fengyun-1C, which was intentionally destroyed by a Chinese anti-satellite missile in 2007. This event dramatically increased the amount of space debris, with thousands of trackable fragments posing hazards to satellites and human spaceflight. The Fengyun 1C debris cloud has become a focal point in discussions about space sustainability and the need for international regulations to prevent the creation of new debris.

Loading next visibility...
Identifier
31173, 1999-025BJB
Orbit
SSO
Country
Flag of CNCN / PRC
Related business
Manufacturer
Unknown
Mission
Spacecraft
Bus & Motor
Unknown
Mass
Unknown
Launch date (UTC)
1999-05-10 (27 years ago)
Launch vehicle
Unknown
Launch site
Taiyaun Space Center, China (TSC)
Object type
Payload
Rocket body
Debris
Shape & HBR
Unknown shape, 1.1 m
Radar Cross Section
Medium (>0.1 m² and <1 m²)

Expand to show TLE details & history
Last TLE update: 4 days ago

TLE from 4 days ago
0 FENGYUN 1C DEB
1 31173U 99025BJB 26252.43688324  .00001563  00000-0  76908-3 0  9993
2 31173  98.2100 323.3964 0063496  12.5262 347.7475 14.17851999678331
Epoch: 2026-09-09T10:29Z
TLE epoch observation values (Epoch: 2026-09-09T10:29:06.711Z)
Latitude
-0.00008°
Longitude
177.62949°
Altitude
790.815 km
Speed
7.481 km/s
True Right ascension
21h 33m 35s
True Declination
0° 00' 00"
Sunlit
Object was in full shadow at epoch
Visualization orbit readout
Latitude
Unknown
Longitude
Unknown
Altitude
Unknown
Speed
Unknown
Apparent Right ascension
Unknown
Apparent Declination
Unknown
Sunlit
N/A
Visualization observer readout
Local Sidereal Time
16:52:27
Azimuth
Unknown
Elevation
Unknown
Doppler factor
Unknown
Orbital elements
Apogee altitude
875.532 km
Perigee altitude
783.997 km
Semi-major axis
7,207.901 km
Eccentricity
0.00635
Inclination
98.21°
RAAN
323.3964°
Arg. of periapsis
12.5262°
True anomaly
347.59188°
Mean anomaly
347.7475°
Eccentric anomaly
347.66981°
Mean motion
3.54674 °/min
Orbital period
101.5 mins
BSTAR
0.00076908
Loading maneuver chart data...
Computing Atmospheric mass density...

Documentation

Showing up to 5 results
|